| time (UTC) | temp C | wind direction | speed KPH | gust KPH | rain 1hr cm | rain 24hr cm | rain mn cm | humidity % | barometer mb |
| 20260505022123 | 16 | 47 | 1.6 | 1.6 | 0.00 | 0.00 | 0.00 | 60 | 997.9 |
| 20260505021511 | 16 | 23 | 1.6 | 3.2 | 0.00 | 0.00 | 0.00 | 59 | 997.9 |
| 20260505020926 | 16 | 41 | 0.0 | 1.6 | 0.00 | 0.00 | 0.00 | 63 | 997.9 |
| 20260505020317 | 16 | 66 | 3.2 | 3.2 | 0.00 | 0.00 | 0.00 | 61 | 997.9 |
| 20260505015154 | 15 | 44 | 1.6 | 1.6 | 0.00 | 0.00 | 0.00 | 63 | 997.6 |
| 20260505014530 | 16 | 47 | 1.6 | 1.6 | 0.00 | 0.00 | 0.00 | 63 | 997.9 |
| 20260505013918 | 16 | 50 | 1.6 | 1.6 | 0.00 | 0.00 | 0.00 | 63 | 997.6 |
| 20260505013318 | 16 | 48 | 1.6 | 1.6 | 0.00 | 0.00 | 0.00 | 62 | 997.6 |
| 20260505012711 | 16 | 55 | 1.6 | 1.6 | 0.00 | 0.00 | 0.00 | 63 | 997.9 |
| 20260505012147 | 16 | 59 | 0.0 | 1.6 | 0.00 | 0.00 | 0.00 | 63 | 997.9 |
| 20260505011536 | 16 | 87 | 4.8 | 4.8 | 0.00 | 0.00 | 0.00 | 64 | 997.6 |
| 20260505010914 | 16 | 56 | 0.0 | 0.0 | 0.00 | 0.00 | 0.00 | 65 | 997.9 |
| 20260505010331 | 16 | 55 | 0.0 | 1.6 | 0.00 | 0.00 | 0.00 | 64 | 997.9 |
| 20260505005751 | 16 | 61 | 1.6 | 3.2 | 0.00 | 0.00 | 0.00 | 63 | 997.9 |
| 20260505005121 | 16 | 53 | 0.0 | 1.6 | 0.00 | 0.00 | 0.00 | 63 | 997.9 |
| 20260505004534 | 16 | 50 | 1.6 | 1.6 | 0.00 | 0.00 | 0.00 | 65 | 997.6 |
| 20260505003929 | 16 | 57 | 1.6 | 1.6 | 0.00 | 0.00 | 0.00 | 65 | 997.6 |
| 20260505003354 | 16 | 57 | 1.6 | 1.6 | 0.00 | 0.00 | 0.00 | 64 | 997.6 |
| 20260505002111 | 16 | 52 | 1.6 | 1.6 | 0.00 | 0.00 | 0.00 | 64 | 997.6 |
| 20260505001513 | 16 | 52 | 1.6 | 1.6 | 0.00 | 0.00 | 0.00 | 64 | 997.6 |
| 20260505000916 | 16 | 52 | 1.6 | 1.6 | 0.00 | 0.00 | 0.00 | 63 | 997.6 |
| 20260505000318 | 16 | 54 | 1.6 | 1.6 | 0.00 | 0.00 | 0.00 | 63 | 997.6 |
| 20260504235715 | 17 | 49 | 1.6 | 1.6 | 0.00 | 0.00 | 0.00 | 61 | 997.6 |
| 20260504234528 | 18 | 345 | 3.2 | 3.2 | 0.00 | 0.00 | 0.00 | 55 | 997.6 |
| 20260504233933 | 18 | 23 | 0.0 | 0.0 | 0.00 | 0.00 | 0.00 | 57 | 997.2 |
| 20260504233341 | 18 | 33 | 1.6 | 1.6 | 0.00 | 0.00 | 0.00 | 56 | 997.2 |
| 20260504232715 | 18 | 340 | 1.6 | 3.2 | 0.00 | 0.00 | 0.00 | 54 | 997.6 |
| 20260504232153 | 18 | 26 | 0.0 | 0.0 | 0.00 | 0.00 | 0.00 | 57 | 997.6 |
| 20260504231519 | 18 | 7 | 0.0 | 0.0 | 0.00 | 0.00 | 0.00 | 55 | 997.6 |
| 20260504230952 | 18 | 30 | 0.0 | 0.0 | 0.00 | 0.00 | 0.00 | 55 | 997.6 |
| 20260504225714 | 18 | 15 | 1.6 | 1.6 | 0.00 | 0.00 | 0.00 | 55 | 997.6 |
| 20260504225147 | 18 | 33 | 0.0 | 1.6 | 0.00 | 0.00 | 0.00 | 54 | 997.9 |
| 20260504224511 | 18 | 4 | 1.6 | 1.6 | 0.00 | 0.00 | 0.00 | 54 | 997.6 |
| 20260504223935 | 18 | 349 | 1.6 | 3.2 | 0.00 | 0.00 | 0.00 | 54 | 997.6 |
| 20260504223316 | 18 | 15 | 0.0 | 0.0 | 0.00 | 0.00 | 0.00 | 55 | 997.9 |
| 20260504222753 | 18 | 38 | 0.0 | 0.0 | 0.00 | 0.00 | 0.00 | 55 | 998.3 |
| 20260504222112 | 18 | 349 | 3.2 | 6.4 | 0.00 | 0.00 | 0.00 | 52 | 997.9 |
| 20260504221522 | 18 | 319 | 3.2 | 3.2 | 0.00 | 0.00 | 0.00 | 53 | 997.9 |
| 20260504220927 | 18 | 26 | 3.2 | 4.8 | 0.00 | 0.00 | 0.00 | 53 | 997.9 |
| 20260504220316 | 18 | 308 | 8.0 | 9.7 | 0.00 | 0.00 | 0.00 | 54 | 998.3 |
| 20260504215123 | 17 | 329 | 3.2 | 4.8 | 0.00 | 0.00 | 0.00 | 57 | 997.9 |
| 20260504214552 | 17 | 359 | 0.0 | 0.0 | 0.00 | 0.00 | 0.00 | 56 | 998.3 |
| 20260504213951 | 18 | 353 | 6.4 | 6.4 | 0.00 | 0.00 | 0.00 | 55 | 997.9 |
| 20260504211527 | 18 | 0 | 0.0 | 0.0 | 0.00 | 0.00 | 0.00 | 55 | 998.3 |
| 20260504210950 | 18 | 21 | 3.2 | 4.8 | 0.00 | 0.00 | 0.00 | 54 | 997.9 |
| 20260504210330 | 18 | 107 | 6.4 | 9.7 | 0.00 | 0.00 | 0.00 | 53 | 998.3 |
| 20260504205734 | 18 | 315 | 3.2 | 4.8 | 0.00 | 0.00 | 0.00 | 52 | 997.9 |
| 20260504205140 | 18 | 308 | 8.0 | 9.7 | 0.00 | 0.00 | 0.00 | 51 | 997.6 |
| 20260504204542 | 18 | 60 | 1.6 | 3.2 | 0.00 | 0.00 | 0.00 | 52 | 997.6 |
| 20260504203931 | 18 | 67 | 3.2 | 4.8 | 0.00 | 0.00 | 0.00 | 51 | 997.9 |
| 20260504202734 | 18 | 3 | 0.0 | 0.0 | 0.00 | 0.00 | 0.00 | 49 | 997.9 |
| 20260504202114 | 19 | 345 | 3.2 | 4.8 | 0.00 | 0.00 | 0.00 | 49 | 997.6 |
| 20260504201541 | 20 | 6 | 4.8 | 9.7 | 0.00 | 0.00 | 0.00 | 48 | 997.9 |
| 20260504200320 | 20 | 323 | 1.6 | 3.2 | 0.00 | 0.00 | 0.00 | 48 | 997.9 |
| 20260504195752 | 19 | 19 | 3.2 | 3.2 | 0.00 | 0.00 | 0.00 | 49 | 998.3 |
| 20260504195124 | 18 | 301 | 4.8 | 4.8 | 0.00 | 0.00 | 0.00 | 51 | 998.3 |
| 20260504194552 | 18 | 334 | 6.4 | 9.7 | 0.00 | 0.00 | 0.00 | 51 | 998.3 |
| 20260504193936 | 19 | 285 | 4.8 | 4.8 | 0.00 | 0.00 | 0.00 | 49 | 997.9 |
| 20260504193337 | 20 | 335 | 8.0 | 9.7 | 0.00 | 0.00 | 0.00 | 48 | 997.9 |
| 20260504192722 | 20 | 320 | 6.4 | 9.7 | 0.00 | 0.00 | 0.00 | 47 | 997.9 |
| 20260504192139 | 20 | 319 | 8.0 | 11.3 | 0.00 | 0.00 | 0.00 | 46 | 997.9 |
| 20260504191533 | 21 | 52 | 1.6 | 1.6 | 0.00 | 0.00 | 0.00 | 46 | 997.9 |
| 20260504190949 | 20 | 329 | 4.8 | 9.7 | 0.00 | 0.00 | 0.00 | 47 | 997.9 |
| 20260504185733 | 20 | 47 | 1.6 | 3.2 | 0.00 | 0.00 | 0.00 | 49 | 997.9 |
| 20260504184535 | 20 | 268 | 4.8 | 4.8 | 0.00 | 0.00 | 0.00 | 47 | 997.9 |
| 20260504183943 | 19 | 78 | 1.6 | 1.6 | 0.00 | 0.00 | 0.00 | 48 | 998.3 |
| 20260504183329 | 20 | 15 | 1.6 | 3.2 | 0.00 | 0.00 | 0.00 | 51 | 998.3 |
| 20260504182741 | 19 | 60 | 6.4 | 9.7 | 0.00 | 0.00 | 0.00 | 49 | 998.3 |
| 20260504182142 | 20 | 6 | 6.4 | 6.4 | 0.00 | 0.00 | 0.00 | 47 | 998.3 |
| 20260504181512 | 20 | 308 | 9.7 | 11.3 | 0.00 | 0.00 | 0.00 | 48 | 998.3 |
| 20260504180923 | 20 | 1 | 6.4 | 12.9 | 0.00 | 0.00 | 0.00 | 49 | 998.6 |
| 20260504180320 | 18 | 309 | 6.4 | 6.4 | 0.00 | 0.00 | 0.00 | 51 | 998.6 |
| 20260504175748 | 18 | 312 | 11.3 | 17.7 | 0.00 | 0.00 | 0.00 | 52 | 998.9 |
| 20260504174534 | 18 | 10 | 1.6 | 1.6 | 0.00 | 0.00 | 0.00 | 53 | 998.9 |
| 20260504173931 | 18 | 308 | 3.2 | 4.8 | 0.00 | 0.00 | 0.00 | 52 | 998.6 |
| 20260504172713 | 17 | 337 | 3.2 | 4.8 | 0.00 | 0.00 | 0.00 | 55 | 998.9 |
| 20260504172134 | 17 | 278 | 3.2 | 3.2 | 0.00 | 0.00 | 0.00 | 60 | 998.9 |
| 20260504171554 | 16 | 341 | 1.6 | 3.2 | 0.00 | 0.00 | 0.00 | 58 | 999.3 |
| 20260504170919 | 16 | 341 | 9.7 | 12.9 | 0.00 | 0.00 | 0.00 | 59 | 999.3 |
| 20260504170335 | 15 | 326 | 6.4 | 9.7 | 0.00 | 0.00 | 0.00 | 61 | 999.6 |
| 20260504160347 | 13 | 261 | 6.4 | 6.4 | 0.00 | 0.00 | 0.00 | 62 | 1000.6 |
| 20260504150915 | 13 | 7 | 4.8 | 4.8 | 0.00 | 0.00 | 0.00 | 59 | 1000.6 |
| 20260504140937 | 13 | 314 | 1.6 | 3.2 | 0.00 | 0.00 | 0.00 | 60 | 1000.3 |
| 20260504140321 | 12 | 327 | 1.6 | 1.6 | 0.00 | 0.00 | 0.00 | 61 | 1000.6 |
| 20260504130318 | 11 | 351 | 4.8 | 4.8 | 0.00 | 0.00 | 0.00 | 58 | 1000.0 |
| 20260504110322 | 7 | 51 | 1.6 | 1.6 | 0.00 | 0.00 | 0.00 | 73 | 1000.3 |
| 20260504100350 | 7 | 59 | 1.6 | 3.2 | 0.00 | 0.00 | 0.00 | 79 | 1000.3 |
| 20260504081552 | 5 | 44 | 0.0 | 1.6 | 0.00 | 0.00 | 0.00 | 97 | 1000.6 |
| 20260504080329 | 6 | 26 | 0.0 | 0.0 | 0.00 | 0.00 | 0.00 | 96 | 1000.6 |
| 20260504070351 | 6 | 18 | 1.6 | 1.6 | 0.00 | 0.00 | 0.00 | 88 | 1001.0 |
| 20260504045731 | 7 | 344 | 1.6 | 1.6 | 0.00 | 0.00 | 0.00 | 67 | 1001.3 |
| 20260504045152 | 6 | 53 | 1.6 | 3.2 | 0.00 | 0.00 | 0.00 | 70 | 1001.6 |
| 20260504044536 | 6 | 54 | 1.6 | 1.6 | 0.00 | 0.00 | 0.00 | 70 | 1001.3 |
| 20260504043915 | 6 | 54 | 1.6 | 1.6 | 0.00 | 0.00 | 0.00 | 69 | 1001.0 |
| 20260504042719 | 6 | 52 | 1.6 | 1.6 | 0.00 | 0.00 | 0.00 | 71 | 1001.3 |
| 20260504042142 | 6 | 57 | 1.6 | 1.6 | 0.00 | 0.00 | 0.00 | 69 | 1001.3 |
| 20260504041542 | 6 | 58 | 1.6 | 1.6 | 0.00 | 0.00 | 0.00 | 70 | 1001.3 |
| 20260504040949 | 6 | 61 | 3.2 | 3.2 | 0.00 | 0.00 | 0.00 | 69 | 1001.6 |
| 20260504035738 | 6 | 38 | 1.6 | 1.6 | 0.00 | 0.00 | 0.00 | 67 | 1001.3 |
| 20260504035142 | 6 | 51 | 1.6 | 1.6 | 0.00 | 0.00 | 0.00 | 68 | 1001.3 |
| 20260504033953 | 7 | 37 | 0.0 | 0.0 | 0.00 | 0.00 | 0.00 | 68 | 1001.3 |
| 20260504033342 | 7 | 46 | 1.6 | 1.6 | 0.00 | 0.00 | 0.00 | 67 | 1001.3 |
| 20260504032714 | 7 | 48 | 1.6 | 1.6 | 0.00 | 0.00 | 0.00 | 64 | 1001.3 |
| 20260504032125 | 7 | 53 | 1.6 | 1.6 | 0.00 | 0.00 | 0.00 | 65 | 1001.3 |
| 20260504031536 | 7 | 46 | 1.6 | 1.6 | 0.00 | 0.00 | 0.00 | 64 | 1001.3 |
| 20260504030952 | 7 | 52 | 1.6 | 1.6 | 0.00 | 0.00 | 0.00 | 65 | 1001.6 |
| 20260504030354 | 7 | 36 | 0.0 | 0.0 | 0.00 | 0.00 | 0.00 | 65 | 1001.3 |
| 20260504025115 | 7 | 32 | 0.0 | 0.0 | 0.00 | 0.00 | 0.00 | 65 | 1001.3 |
| 20260504024555 | 7 | 36 | 0.0 | 0.0 | 0.00 | 0.00 | 0.00 | 67 | 1001.3 |
| 20260504023317 | 8 | 30 | 0.0 | 1.6 | 0.00 | 0.00 | 0.00 | 65 | 1001.6 |